Regional Weather Roundup
Issued by NWS

Home | Current Version | Previous Version | Graphics & Text | Print | Product List | Glossary On
Versions: 1 2 3 4 5 6 7 8 9 10 11 12 13 14 15 16 17 18 19 20 21 22 23 24 25 26 27 28 29 30 31 32 33 34 35 36 37 38 39 40 41 42 43 44 45 46 47 48 49 50
000
ASUS43 KTOP 250908
RWRKS

WEATHER ROUNDUP FOR KANSAS
NATIONAL WEATHER SERVICE GOODLAND KS
400 AM CDT WED APR 25 2018

NOTE:  "FAIR" INDICATES FEW OR NO CLOUDS BELOW 12,000 FEET WITH NO
SIGNIFICANT WEATHER AND/OR OBSTRUCTIONS TO VISIBILITY.

KSZ001>006-013>018-027>032-041>047-251000-
NORTHWEST KANSAS

CITY           SKY/WX    TMP DP  RH WIND       PRES   REMARKS
GOODLAND       PTCLDY    31  30  96 NW12      30.35S WCI  22
HAYS           CLOUDY    40  37  89 N18G26    30.29S WCI  31
HILL CITY      CLOUDY    40  37  89 N20       30.32S WCI  30
RUSSELL        CLOUDY    41  41 100 NW20      30.25F
$$

KSZ061>065-074>080-084>089-251000-
SOUTHWEST KANSAS

CITY           SKY/WX    TMP DP  RH WIND       PRES   REMARKS
DODGE CITY     CLOUDY    39  35  86 NW15      30.30F WCI  31
ELKHART        MOCLDY    40  39  97 NW13      30.35F WCI  33
GARDEN CITY    PTCLDY    37  34  89 N16       30.32F WCI  28
GREAT BEND       N/A     41  39  93 NW14      30.27F
LIBERAL        CLOUDY    38  37  97 NW9       30.35S
PRATT          DRIZZLE   41  39  91 NW16G23   30.26R
$$

KSZ066>073-081>083-090>101-251000-
SOUTHEAST KANSAS

CITY           SKY/WX    TMP DP  RH WIND       PRES   REMARKS
CHANUTE        LGT RAIN  54  49  83 NW15      30.14R
COFFEYVILLE    CLOUDY    55  49  80 NW16      30.12R
HUTCHINSON     LGT RAIN  44  43  96 NW13      30.22F
MEDICINE LODGE   N/A     43  42  97 NW10      30.25R
NEWTON         LGT RAIN  45  44  97 NW13      30.21S
PARSONS        CLOUDY    55  50  83 N17       30.14R
WICHITA INTL   RAIN      47  46  97 N10       30.21F
WICHITA JABRA  RAIN      46  46 100 NW14      30.21S
WICHITA MCCONL RAIN      47  47  99 N13       30.20F
WINFIELD       HVY RAIN  48  47  96 N21G30    30.20S
$$

KSZ007>012-019>026-033>040-048>060-102>105-251000-
NORTHEAST KANSAS

CITY           SKY/WX    TMP DP  RH WIND       PRES   REMARKS
CONCORDIA      LGT RAIN  45  43  93 NW17      30.22R
EMPORIA        LGT RAIN  49  47  93 NW10      30.18S FOG
LAWRENCE       CLOUDY    56  46  69 NW10      30.13R
MANHATTAN      RAIN      50  48  93 SW3       30.21R FOG
MARYSVILLE     CLOUDY    48  46  93 N8        30.19S
OLATHE IND     CLOUDY    56  46  69 NW13      30.12R
OLATHE EXE     MOCLDY    56  46  69 N15       30.09F
SALINA         LGT RAIN  47  46  97 NW13      30.21F
TOPEKA BILLARD LGT RAIN  53  51  93 W9G18     30.16R
TOPEKA FORBES  LGT RAIN  53  50  89 NW13      30.16R
$$




USA.gov is the U.S. government's official web portal to all federal, state and local government web resources and services.